Regional Weather Roundup
Issued by NWS

Home | Current Version | Previous Version | Text Only | Print | Product List | Glossary Off
Versions: 1 2 3 4 5 6 7 8 9 10 11 12 13 14 15 16 17 18 19 20 21 22 23 24 25 26 27 28 29 30 31 32 33 34 35 36 37 38 39 40 41 42 43 44 45 46 47 48 49 50

657
ASUS44 KMEG 020210
RWRTN
TENNESSEE HOURLY STATE WEATHER ROUNDUP
NATIONAL WEATHER SERVICE MEMPHIS TN
900 PM CDT SUN MAY 01 2016

TNZ002-004-019-021-049-052-054-088>092-020300-
WEST TENNESSEE

CITY           SKY/WX    TMP DP  RH WIND       PRES   REMARKS
MEMPHIS INTL   PTCLDY    75  66  73 CALM      29.95R
NWS MEMPHIS      N/A     72 N/A N/A MISG        N/A
JACKSON        PTCLDY    67  63  87 CALM      29.95R
DYERSBURG      CLEAR     72  64  78 CALM        N/A
UNION CITY     CLEAR     68  66  94 CALM      29.92S
LEXINGTON      CLEAR     68  66  94 CALM      29.95R
$$

TNZ008-025-027-028-033-062-065-066-020300-
NORTH MIDDLE TENNESSEE

CITY           SKY/WX    TMP DP  RH WIND       PRES   REMARKS
NASHVILLE      PTCLDY    68  64  87 S6        29.95R
CLARKSVILLE    CLEAR     66  63  90 CALM      29.93S
SMYRNA         CLEAR     72  65  78 SW6       29.96R
COOKEVILLE     CLEAR     70  64  83 S6        29.97R
CROSSVILLE     CLOUDY    72  61  68 VRB5      30.02R
$$

TNZ061-075-076-078-094-096-097-020300-
SOUTH MIDDLE TENNESSEE

CITY           SKY/WX    TMP DP  RH WIND       PRES   REMARKS
FAYETTEVILLE   CLEAR     68  61  77 VRB3      30.00R
TULLAHOMA      PTCLDY    64  63  94 S5        30.02R
WINCHESTER     CLEAR     66  63  88 CALM      30.01F
MCMINNVILLE    CLEAR     70  63  78 S6        29.99R
COLUMBIA       CLEAR     70  70 100 S7        29.96S
SHELBYVILLE    PTCLDY    70  66  88 S7        30.00R
$$

TNZ017-018-042-046-047-020300-
NORTHEAST TENNESSEE

CITY           SKY/WX    TMP DP  RH WIND       PRES   REMARKS
TRI CITIES     CLOUDY    69  61  75 CALM      30.00R
$$

TNZ012-013-036-069-073-074-020300-
CENTRAL EAST TENNESSEE

CITY           SKY/WX    TMP DP  RH WIND       PRES   REMARKS
KNOXVILLE      PTCLDY    66  63  90 SW9       29.98S
OAK RIDGE      PTCLDY    73  64  73 CALM      29.99S
GATLINBURG     CLEAR     72  63  73 SW6       29.98R
MORRISTOWN     CLEAR     72  63  73 SW10G18   29.99R
$$

TNZ083-085-099-020300-
SOUTHEAST TENNESSEE

CITY           SKY/WX    TMP DP  RH WIND       PRES   REMARKS
CHATTANOOGA    PTCLDY    73  63  70 SW3       30.01S
$$

SKY/WX REPORTED AS FAIR MEANS FEW OR NO CLOUDS BELOW
12 THOUSAND FEET.





USA.gov is the U.S. government's official web portal to all federal, state and local government web resources and services.